Year,Month,Day,Hour,Minute,Value (Times are PST for temperature in C)
2018,06,17,00,00,14.60
2018,06,17,00,01,14.60
2018,06,17,00,02,14.60
2018,06,17,00,03,14.60
2018,06,17,00,04,14.60
2018,06,17,00,05,14.60
2018,06,17,00,06,14.60
2018,06,17,00,07,14.60
2018,06,17,00,08,14.50
2018,06,17,00,09,14.50
2018,06,17,00,10,14.50
2018,06,17,00,11,14.50
2018,06,17,00,12,14.50
2018,06,17,00,13,14.50
2018,06,17,00,14,14.60
2018,06,17,00,15,14.60
2018,06,17,00,16,14.70
2018,06,17,00,17,14.60
2018,06,17,00,18,14.60
2018,06,17,00,19,14.60
2018,06,17,00,20,14.60
2018,06,17,00,21,14.60
2018,06,17,00,22,14.60
2018,06,17,00,23,14.50
2018,06,17,00,24,14.50
2018,06,17,00,25,14.50
2018,06,17,00,26,14.50
2018,06,17,00,27,14.40
2018,06,17,00,28,14.40
2018,06,17,00,29,14.40
2018,06,17,00,30,14.30
2018,06,17,00,31,14.30
2018,06,17,00,32,14.30
2018,06,17,00,33,14.40
2018,06,17,00,34,14.40
2018,06,17,00,35,14.40
2018,06,17,00,36,14.40
2018,06,17,00,37,14.40
2018,06,17,00,38,14.40
2018,06,17,00,39,14.40
2018,06,17,00,40,14.40
2018,06,17,00,41,14.40
2018,06,17,00,42,14.40
2018,06,17,00,43,14.40
2018,06,17,00,44,14.40
2018,06,17,00,45,14.40
2018,06,17,00,46,14.40
2018,06,17,00,47,14.30
2018,06,17,00,48,14.30
2018,06,17,00,49,14.40
2018,06,17,00,50,14.40
2018,06,17,00,51,14.40
2018,06,17,00,52,14.30
2018,06,17,00,53,14.30
2018,06,17,00,54,14.30
2018,06,17,00,55,14.30
2018,06,17,00,56,14.30
2018,06,17,00,57,14.30
2018,06,17,00,58,14.30
2018,06,17,00,59,14.30
2018,06,17,01,00,14.30
2018,06,17,01,01,14.30
2018,06,17,01,02,14.20
2018,06,17,01,03,14.20
2018,06,17,01,04,14.20
2018,06,17,01,05,14.20
2018,06,17,01,06,14.20
2018,06,17,01,07,14.20
2018,06,17,01,08,14.20
2018,06,17,01,09,14.20
2018,06,17,01,10,14.20
2018,06,17,01,11,14.20
2018,06,17,01,12,14.20
2018,06,17,01,13,14.20
2018,06,17,01,14,14.20
2018,06,17,01,15,14.20
2018,06,17,01,16,14.20
2018,06,17,01,17,14.20
2018,06,17,01,18,14.10
2018,06,17,01,19,14.10
2018,06,17,01,20,14.10
2018,06,17,01,21,14.00
2018,06,17,01,22,14.00
2018,06,17,01,23,14.00
2018,06,17,01,24,14.00
2018,06,17,01,25,13.90
2018,06,17,01,26,13.90
2018,06,17,01,27,13.90
2018,06,17,01,28,13.80
2018,06,17,01,29,13.80
2018,06,17,01,30,13.80
2018,06,17,01,31,13.70
2018,06,17,01,32,13.70
2018,06,17,01,33,13.70
2018,06,17,01,34,13.70
2018,06,17,01,35,13.70
2018,06,17,01,36,13.60
2018,06,17,01,37,13.60
2018,06,17,01,38,13.50
2018,06,17,01,39,13.50
2018,06,17,01,40,13.50
2018,06,17,01,41,13.40
2018,06,17,01,42,13.40
2018,06,17,01,43,13.40
2018,06,17,01,44,13.30
2018,06,17,01,45,13.30
2018,06,17,01,46,13.30
2018,06,17,01,47,13.30
2018,06,17,01,48,13.30
2018,06,17,01,49,13.30
2018,06,17,01,50,13.30
2018,06,17,01,51,13.30
2018,06,17,01,52,13.30
2018,06,17,01,53,13.30
2018,06,17,01,54,13.30
2018,06,17,01,55,13.30
2018,06,17,01,56,13.20
2018,06,17,01,57,13.20
2018,06,17,01,58,13.20
2018,06,17,01,59,13.20
2018,06,17,02,00,13.20
2018,06,17,02,01,13.10
2018,06,17,02,02,13.10
2018,06,17,02,03,13.10
2018,06,17,02,04,13.10
2018,06,17,02,05,13.10
2018,06,17,02,06,13.10
2018,06,17,02,07,13.10
2018,06,17,02,08,13.10
2018,06,17,02,09,13.10
2018,06,17,02,10,13.10
2018,06,17,02,11,13.10
2018,06,17,02,12,13.10
2018,06,17,02,13,13.10
2018,06,17,02,14,13.20
2018,06,17,02,15,13.30
2018,06,17,02,16,13.30
2018,06,17,02,17,13.30
2018,06,17,02,18,13.30
2018,06,17,02,19,13.30
2018,06,17,02,20,13.30
2018,06,17,02,21,13.30
2018,06,17,02,22,13.30
2018,06,17,02,23,13.30
2018,06,17,02,24,13.30
2018,06,17,02,25,13.30
2018,06,17,02,26,13.30
2018,06,17,02,27,13.30
2018,06,17,02,28,13.30
2018,06,17,02,29,13.30
2018,06,17,02,30,13.30
2018,06,17,02,31,13.30
2018,06,17,02,32,13.30
2018,06,17,02,33,13.30
2018,06,17,02,34,13.20
2018,06,17,02,35,13.20
2018,06,17,02,36,13.20
2018,06,17,02,37,13.20
2018,06,17,02,38,13.20
2018,06,17,02,39,13.20
2018,06,17,02,40,13.20
2018,06,17,02,41,13.20
2018,06,17,02,42,13.20
2018,06,17,02,43,13.10
2018,06,17,02,44,13.10
2018,06,17,02,45,13.10
2018,06,17,02,46,13.10
2018,06,17,02,47,13.10
2018,06,17,02,48,13.10
2018,06,17,02,49,13.10
2018,06,17,02,50,13.10
2018,06,17,02,51,13.10
2018,06,17,02,52,13.10
2018,06,17,02,53,13.10
2018,06,17,02,54,13.10
2018,06,17,02,55,13.10
2018,06,17,02,56,13.10
2018,06,17,02,57,13.00
2018,06,17,02,58,13.00
2018,06,17,02,59,13.00
2018,06,17,03,00,13.00
2018,06,17,03,01,13.10
2018,06,17,03,02,13.10
2018,06,17,03,03,13.10
2018,06,17,03,04,13.10
2018,06,17,03,05,13.10
2018,06,17,03,06,13.10
2018,06,17,03,07,13.10
2018,06,17,03,08,13.10
2018,06,17,03,09,13.10
2018,06,17,03,10,13.10
2018,06,17,03,11,13.10
2018,06,17,03,12,13.00
2018,06,17,03,13,13.00
2018,06,17,03,14,13.00
2018,06,17,03,15,13.00
2018,06,17,03,16,13.00
2018,06,17,03,17,12.90
2018,06,17,03,18,12.90
2018,06,17,03,19,12.90
2018,06,17,03,20,12.90
2018,06,17,03,21,12.90
2018,06,17,03,22,12.90
2018,06,17,03,23,12.80
2018,06,17,03,24,12.80
2018,06,17,03,25,12.90
2018,06,17,03,26,13.00
2018,06,17,03,27,13.00
2018,06,17,03,28,13.10
2018,06,17,03,29,13.10
2018,06,17,03,30,13.20
2018,06,17,03,31,13.20
2018,06,17,03,32,13.20
2018,06,17,03,33,13.20
2018,06,17,03,34,13.20
2018,06,17,03,35,13.20
2018,06,17,03,36,13.20
2018,06,17,03,37,13.20
2018,06,17,03,38,13.20
2018,06,17,03,39,13.10
2018,06,17,03,40,13.10
2018,06,17,03,41,13.10
2018,06,17,03,42,13.10
2018,06,17,03,43,13.00
2018,06,17,03,44,13.00
2018,06,17,03,45,13.00
2018,06,17,03,46,13.10
2018,06,17,03,47,13.10
2018,06,17,03,48,13.20
2018,06,17,03,49,13.30
2018,06,17,03,50,13.30
2018,06,17,03,51,13.30
2018,06,17,03,52,13.30
2018,06,17,03,53,13.30
2018,06,17,03,54,13.30
2018,06,17,03,55,13.20
2018,06,17,03,56,13.20
2018,06,17,03,57,13.10
2018,06,17,03,58,13.10
2018,06,17,03,59,13.10
2018,06,17,04,00,13.00
2018,06,17,04,01,13.00
2018,06,17,04,02,13.00
2018,06,17,04,03,12.90
2018,06,17,04,04,12.80
2018,06,17,04,05,12.80
2018,06,17,04,06,12.80
2018,06,17,04,07,12.80
2018,06,17,04,08,12.80
2018,06,17,04,09,12.80
2018,06,17,04,10,12.90
2018,06,17,04,11,12.90
2018,06,17,04,12,13.00
2018,06,17,04,13,13.00
2018,06,17,04,14,13.00
2018,06,17,04,15,13.00
2018,06,17,04,16,13.00
2018,06,17,04,17,13.00
2018,06,17,04,18,13.00
2018,06,17,04,19,13.00
2018,06,17,04,20,13.10
2018,06,17,04,21,13.10
2018,06,17,04,22,13.10
2018,06,17,04,23,13.10
2018,06,17,04,24,13.10
2018,06,17,04,25,13.10
2018,06,17,04,26,13.10
2018,06,17,04,27,13.00
2018,06,17,04,28,13.00
2018,06,17,04,29,13.00
2018,06,17,04,30,13.00
2018,06,17,04,31,12.90
2018,06,17,04,32,12.90
2018,06,17,04,33,12.90
2018,06,17,04,34,12.90
2018,06,17,04,35,12.90
2018,06,17,04,36,12.90
2018,06,17,04,37,12.90
2018,06,17,04,38,12.90
2018,06,17,04,39,12.90
2018,06,17,04,40,12.90
2018,06,17,04,41,12.90
2018,06,17,04,42,13.00
2018,06,17,04,43,13.00
2018,06,17,04,44,13.00
2018,06,17,04,45,13.00
2018,06,17,04,46,13.00
2018,06,17,04,47,12.90
2018,06,17,04,48,12.90
2018,06,17,04,49,12.90
2018,06,17,04,50,12.90
2018,06,17,04,51,12.90
2018,06,17,04,52,12.80
2018,06,17,04,53,12.80
2018,06,17,04,54,12.80
2018,06,17,04,55,12.80
2018,06,17,04,56,12.70
2018,06,17,04,57,12.70
2018,06,17,04,58,12.60
2018,06,17,04,59,12.60
2018,06,17,05,00,12.60
2018,06,17,05,01,12.50
2018,06,17,05,02,12.50
2018,06,17,05,03,12.50
2018,06,17,05,04,12.50
2018,06,17,05,05,12.40
2018,06,17,05,06,12.40
2018,06,17,05,07,12.40
2018,06,17,05,08,12.40
2018,06,17,05,09,12.40
2018,06,17,05,10,12.30
2018,06,17,05,11,12.30
2018,06,17,05,12,12.30
2018,06,17,05,13,12.30
2018,06,17,05,14,12.30
2018,06,17,05,15,12.30
2018,06,17,05,16,12.30
2018,06,17,05,17,12.30
2018,06,17,05,18,12.30
2018,06,17,05,19,12.30
2018,06,17,05,20,12.30
2018,06,17,05,21,12.20
2018,06,17,05,22,12.20
2018,06,17,05,23,12.20
2018,06,17,05,24,12.20
2018,06,17,05,25,12.10
2018,06,17,05,26,12.10
2018,06,17,05,27,12.10
2018,06,17,05,28,12.00
2018,06,17,05,29,12.00
2018,06,17,05,30,12.00
2018,06,17,05,31,12.00
2018,06,17,05,32,12.00
2018,06,17,05,33,11.90
2018,06,17,05,34,11.90
2018,06,17,05,35,11.80
2018,06,17,05,36,11.80
2018,06,17,05,37,11.80
2018,06,17,05,38,11.90
2018,06,17,05,39,11.90
2018,06,17,05,40,11.90
2018,06,17,05,41,11.90
2018,06,17,05,42,11.90
2018,06,17,05,43,11.90
2018,06,17,05,44,11.90
2018,06,17,05,45,11.90
2018,06,17,05,46,11.90
2018,06,17,05,47,11.90
2018,06,17,05,48,11.80
2018,06,17,05,49,11.80
2018,06,17,05,50,11.80
2018,06,17,05,51,11.80
2018,06,17,05,52,11.80
2018,06,17,05,53,11.80
2018,06,17,05,54,11.80
2018,06,17,05,55,11.80
2018,06,17,05,56,11.80
2018,06,17,05,57,11.80
2018,06,17,05,58,11.80
2018,06,17,05,59,11.80
2018,06,17,06,00,11.80
2018,06,17,06,01,11.80
2018,06,17,06,02,11.90
2018,06,17,06,03,11.90
2018,06,17,06,04,11.90
2018,06,17,06,05,11.90
2018,06,17,06,06,12.00
2018,06,17,06,07,12.00
2018,06,17,06,08,12.00
2018,06,17,06,09,12.00
2018,06,17,06,10,12.00
2018,06,17,06,11,12.10
2018,06,17,06,12,12.10
2018,06,17,06,13,12.10
2018,06,17,06,14,12.20
2018,06,17,06,15,12.20
2018,06,17,06,16,12.30
2018,06,17,06,17,12.30
2018,06,17,06,18,12.30
2018,06,17,06,19,12.40
2018,06,17,06,20,12.50
2018,06,17,06,21,12.50
2018,06,17,06,22,12.60
2018,06,17,06,23,12.70
2018,06,17,06,24,12.70
2018,06,17,06,25,12.80
2018,06,17,06,26,12.80
2018,06,17,06,27,12.80
2018,06,17,06,28,12.90
2018,06,17,06,29,13.00
2018,06,17,06,30,13.00
2018,06,17,06,31,13.10
2018,06,17,06,32,13.10
2018,06,17,06,33,13.20
2018,06,17,06,34,13.20
2018,06,17,06,35,13.30
2018,06,17,06,36,13.30
2018,06,17,06,37,13.40
2018,06,17,06,38,13.50
2018,06,17,06,39,13.50
2018,06,17,06,40,13.60
2018,06,17,06,41,13.60
2018,06,17,06,42,13.70
2018,06,17,06,43,13.70
2018,06,17,06,44,13.70
2018,06,17,06,45,13.80
2018,06,17,06,46,13.90
2018,06,17,06,47,13.90
2018,06,17,06,48,14.00
2018,06,17,06,49,14.00
2018,06,17,06,50,14.10
2018,06,17,06,51,14.10
2018,06,17,06,52,14.20
2018,06,17,06,53,14.20
2018,06,17,06,54,14.20
2018,06,17,06,55,14.30
2018,06,17,06,56,14.30
2018,06,17,06,57,14.40
2018,06,17,06,58,14.50
2018,06,17,06,59,14.50
2018,06,17,07,00,14.60
2018,06,17,07,01,14.60
2018,06,17,07,02,14.60
2018,06,17,07,03,14.70
2018,06,17,07,04,14.80
2018,06,17,07,05,14.80
2018,06,17,07,06,14.90
2018,06,17,07,07,14.90
2018,06,17,07,08,15.00
2018,06,17,07,09,15.10
2018,06,17,07,10,15.10
2018,06,17,07,11,15.20
2018,06,17,07,12,15.30
2018,06,17,07,13,15.30
2018,06,17,07,14,15.40
2018,06,17,07,15,15.50
2018,06,17,07,16,15.50
2018,06,17,07,17,15.60
2018,06,17,07,18,15.70
2018,06,17,07,19,15.80
2018,06,17,07,20,15.80
2018,06,17,07,21,15.90
2018,06,17,07,22,16.00
2018,06,17,07,23,16.10
2018,06,17,07,24,16.20
2018,06,17,07,25,16.30
2018,06,17,07,26,16.30
2018,06,17,07,27,16.40
2018,06,17,07,28,16.50
2018,06,17,07,29,16.60
2018,06,17,07,30,16.70
2018,06,17,07,31,16.80
2018,06,17,07,32,16.90
2018,06,17,07,33,16.90
2018,06,17,07,34,17.00
2018,06,17,07,35,17.10
2018,06,17,07,36,17.20
2018,06,17,07,37,17.30
2018,06,17,07,38,17.30
2018,06,17,07,39,17.40
2018,06,17,07,40,17.50
2018,06,17,07,41,17.50
2018,06,17,07,42,17.60
2018,06,17,07,43,17.60
2018,06,17,07,44,17.70
2018,06,17,07,45,17.70
2018,06,17,07,46,17.70
2018,06,17,07,47,17.80
2018,06,17,07,48,17.80
2018,06,17,07,49,17.80
2018,06,17,07,50,17.90
2018,06,17,07,51,17.90
2018,06,17,07,52,17.90
2018,06,17,07,53,17.90
2018,06,17,07,54,18.10
2018,06,17,07,55,18.10
2018,06,17,07,56,18.20
2018,06,17,07,57,18.30
2018,06,17,07,58,18.40
2018,06,17,07,59,18.50
2018,06,17,08,00,18.60
2018,06,17,08,01,18.60
2018,06,17,08,02,18.70
2018,06,17,08,03,18.80
2018,06,17,08,04,18.80
2018,06,17,08,05,18.90
2018,06,17,08,06,18.90
2018,06,17,08,07,18.90
2018,06,17,08,08,18.90
2018,06,17,08,09,18.90
2018,06,17,08,10,19.00
2018,06,17,08,11,19.10
2018,06,17,08,12,19.10
2018,06,17,08,13,19.10
2018,06,17,08,14,19.20
2018,06,17,08,15,19.20
2018,06,17,08,16,19.30
2018,06,17,08,17,19.40
2018,06,17,08,18,19.40
2018,06,17,08,19,19.50
2018,06,17,08,20,19.50
2018,06,17,08,21,19.60
2018,06,17,08,22,19.70
2018,06,17,08,23,19.80
2018,06,17,08,24,19.90
2018,06,17,08,25,20.00
2018,06,17,08,26,20.20
2018,06,17,08,27,20.30
2018,06,17,08,28,20.50
2018,06,17,08,29,20.60
2018,06,17,08,30,20.70
2018,06,17,08,31,20.80
2018,06,17,08,32,20.90
2018,06,17,08,33,20.90
2018,06,17,08,34,21.00
2018,06,17,08,35,21.00
2018,06,17,08,36,21.10
2018,06,17,08,37,21.30
2018,06,17,08,38,21.50
2018,06,17,08,39,21.60
2018,06,17,08,40,21.80
2018,06,17,08,41,21.90
2018,06,17,08,42,22.00
2018,06,17,08,43,22.10
2018,06,17,08,44,22.10
2018,06,17,08,45,22.10
2018,06,17,08,46,22.20
2018,06,17,08,47,22.30
2018,06,17,08,48,22.30
2018,06,17,08,49,22.40
2018,06,17,08,50,22.60
2018,06,17,08,51,22.60
2018,06,17,08,52,22.70
2018,06,17,08,53,22.70
2018,06,17,08,54,22.70
2018,06,17,08,55,22.80
2018,06,17,08,56,22.90
2018,06,17,08,57,22.90
2018,06,17,08,58,22.90
2018,06,17,08,59,22.90
2018,06,17,09,00,22.90
2018,06,17,09,01,23.00
2018,06,17,09,02,23.10
2018,06,17,09,03,23.00
2018,06,17,09,04,22.90
2018,06,17,09,05,22.90
2018,06,17,09,06,22.90
2018,06,17,09,07,22.80
2018,06,17,09,08,22.80
2018,06,17,09,09,22.80
2018,06,17,09,10,22.70
2018,06,17,09,11,22.50
2018,06,17,09,12,22.30
2018,06,17,09,13,22.10
2018,06,17,09,14,21.90
2018,06,17,09,15,21.70
2018,06,17,09,16,21.50
2018,06,17,09,17,21.30
2018,06,17,09,18,21.20
2018,06,17,09,19,21.10
2018,06,17,09,20,21.10
2018,06,17,09,21,21.10
2018,06,17,09,22,21.20
2018,06,17,09,23,21.20
2018,06,17,09,24,21.30
2018,06,17,09,25,21.50
2018,06,17,09,26,21.70
2018,06,17,09,27,21.80
2018,06,17,09,28,22.00
2018,06,17,09,29,22.00
2018,06,17,09,30,22.00
2018,06,17,09,31,22.00
2018,06,17,09,32,22.00
2018,06,17,09,33,22.10
2018,06,17,09,34,22.10
2018,06,17,09,35,22.10
2018,06,17,09,36,22.10
2018,06,17,09,37,22.10
2018,06,17,09,38,22.20
2018,06,17,09,39,22.20
2018,06,17,09,40,22.30
2018,06,17,09,41,22.40
2018,06,17,09,42,22.50
2018,06,17,09,43,22.60
2018,06,17,09,44,22.60
2018,06,17,09,45,22.60
2018,06,17,09,46,22.70
2018,06,17,09,47,22.90
2018,06,17,09,48,22.90
2018,06,17,09,49,22.90
2018,06,17,09,50,22.90
2018,06,17,09,51,22.90
2018,06,17,09,52,22.90
2018,06,17,09,53,22.90
2018,06,17,09,54,22.90
2018,06,17,09,55,22.90
2018,06,17,09,56,22.80
2018,06,17,09,57,22.70
2018,06,17,09,58,22.70
2018,06,17,09,59,22.70
2018,06,17,10,00,22.80
2018,06,17,10,01,22.70
2018,06,17,10,02,22.70
2018,06,17,10,03,22.70
2018,06,17,10,04,22.70
2018,06,17,10,05,22.80
2018,06,17,10,06,22.80
2018,06,17,10,07,22.90
2018,06,17,10,08,22.90
2018,06,17,10,09,23.00
2018,06,17,10,10,23.10
2018,06,17,10,11,23.10
2018,06,17,10,12,23.20
2018,06,17,10,13,23.10
2018,06,17,10,14,23.10
2018,06,17,10,15,23.10
2018,06,17,10,16,23.10
2018,06,17,10,17,23.20
2018,06,17,10,18,23.30
2018,06,17,10,19,23.40
2018,06,17,10,20,23.50
2018,06,17,10,21,23.60
2018,06,17,10,22,23.70
2018,06,17,10,23,23.70
2018,06,17,10,24,23.80
2018,06,17,10,25,23.80
2018,06,17,10,26,23.80
2018,06,17,10,27,23.90
2018,06,17,10,28,24.00
2018,06,17,10,29,24.00
2018,06,17,10,30,23.80
2018,06,17,10,31,23.60
2018,06,17,10,32,23.50
2018,06,17,10,33,23.20
2018,06,17,10,34,23.00
2018,06,17,10,35,22.90
2018,06,17,10,36,22.90
2018,06,17,10,37,22.80
2018,06,17,10,38,22.60
2018,06,17,10,39,22.50
2018,06,17,10,40,22.60
2018,06,17,10,41,22.60
2018,06,17,10,42,22.60
2018,06,17,10,43,22.70
2018,06,17,10,44,22.80
2018,06,17,10,45,22.70
2018,06,17,10,46,22.70
2018,06,17,10,47,22.70
2018,06,17,10,48,22.60
2018,06,17,10,49,22.60
2018,06,17,10,50,22.60
2018,06,17,10,51,22.60
2018,06,17,10,52,22.60
2018,06,17,10,53,22.60
2018,06,17,10,54,22.50
2018,06,17,10,55,22.50
2018,06,17,10,56,22.50
2018,06,17,10,57,22.50
2018,06,17,10,58,22.40
2018,06,17,10,59,22.40
2018,06,17,11,00,22.50
2018,06,17,11,01,22.50
2018,06,17,11,02,22.60
2018,06,17,11,03,22.60
2018,06,17,11,04,22.50
2018,06,17,11,05,22.40
2018,06,17,11,06,22.30
2018,06,17,11,07,22.20
2018,06,17,11,08,22.10
2018,06,17,11,09,22.00
2018,06,17,11,10,22.00
2018,06,17,11,11,22.00
2018,06,17,11,12,22.00
2018,06,17,11,13,22.00
2018,06,17,11,14,22.10
2018,06,17,11,15,22.10
2018,06,17,11,16,22.20
2018,06,17,11,17,22.30
2018,06,17,11,18,22.20
2018,06,17,11,19,22.10
2018,06,17,11,20,22.10
2018,06,17,11,21,22.00
2018,06,17,11,22,22.00
2018,06,17,11,23,22.00
2018,06,17,11,24,22.00
2018,06,17,11,25,22.10
2018,06,17,11,26,22.20
2018,06,17,11,27,22.30
2018,06,17,11,28,22.40
2018,06,17,11,29,22.40
2018,06,17,11,30,22.50
2018,06,17,11,31,22.50
2018,06,17,11,32,22.60
2018,06,17,11,33,22.60
2018,06,17,11,34,22.60
2018,06,17,11,35,22.60
2018,06,17,11,36,22.70
2018,06,17,11,37,22.70
2018,06,17,11,38,22.70
2018,06,17,11,39,22.60
2018,06,17,11,40,22.50
2018,06,17,11,41,22.40
2018,06,17,11,42,22.40
2018,06,17,11,43,22.50
2018,06,17,11,44,22.40
2018,06,17,11,45,22.30
2018,06,17,11,46,22.30
2018,06,17,11,47,22.30
2018,06,17,11,48,22.30
2018,06,17,11,49,22.40
2018,06,17,11,50,22.50
2018,06,17,11,51,22.60
2018,06,17,11,52,22.60
2018,06,17,11,53,22.60
2018,06,17,11,54,22.60
2018,06,17,11,55,22.60
2018,06,17,11,56,22.70
2018,06,17,11,57,22.70
2018,06,17,11,58,22.80
2018,06,17,11,59,22.90
2018,06,17,12,00,23.00
2018,06,17,12,01,23.10
2018,06,17,12,02,23.30
2018,06,17,12,03,23.40
2018,06,17,12,04,23.60
2018,06,17,12,05,23.70
2018,06,17,12,06,23.70
2018,06,17,12,07,23.70
2018,06,17,12,08,23.60
2018,06,17,12,09,23.50
2018,06,17,12,10,23.30
2018,06,17,12,11,23.30
2018,06,17,12,12,23.30
2018,06,17,12,13,23.30
2018,06,17,12,14,23.20
2018,06,17,12,15,23.20
2018,06,17,12,16,23.10
2018,06,17,12,17,23.00
2018,06,17,12,18,22.90
2018,06,17,12,19,22.90
2018,06,17,12,20,22.90
2018,06,17,12,21,22.90
2018,06,17,12,22,22.80
2018,06,17,12,23,22.80
2018,06,17,12,24,22.80
2018,06,17,12,25,22.70
2018,06,17,12,26,22.80
2018,06,17,12,27,22.90
2018,06,17,12,28,22.90
2018,06,17,12,29,22.90
2018,06,17,12,30,23.10
2018,06,17,12,31,23.10
2018,06,17,12,32,23.20
2018,06,17,12,33,23.20
2018,06,17,12,34,23.30
2018,06,17,12,35,23.30
2018,06,17,12,36,23.40
2018,06,17,12,37,23.40
2018,06,17,12,38,23.40
2018,06,17,12,39,23.40
2018,06,17,12,40,23.30
2018,06,17,12,41,23.40
2018,06,17,12,42,23.50
2018,06,17,12,43,23.50
2018,06,17,12,44,23.50
2018,06,17,12,45,23.40
2018,06,17,12,46,23.60
2018,06,17,12,47,23.60
2018,06,17,12,48,23.60
2018,06,17,12,49,23.70
2018,06,17,12,50,23.80
2018,06,17,12,51,23.80
2018,06,17,12,52,23.80
2018,06,17,12,53,23.90
2018,06,17,12,54,24.00
2018,06,17,12,55,24.10
2018,06,17,12,56,24.10
2018,06,17,12,57,24.20
2018,06,17,12,58,24.30
2018,06,17,12,59,24.40
2018,06,17,13,00,24.50
2018,06,17,13,01,24.70
2018,06,17,13,02,24.80
2018,06,17,13,03,24.80
2018,06,17,13,04,24.80
2018,06,17,13,05,24.80
2018,06,17,13,06,24.70
2018,06,17,13,07,24.60
2018,06,17,13,08,24.50
2018,06,17,13,09,24.50
2018,06,17,13,10,24.50
2018,06,17,13,11,24.60
2018,06,17,13,12,24.70
2018,06,17,13,13,24.70
2018,06,17,13,14,24.70
2018,06,17,13,15,24.60
2018,06,17,13,16,24.50
2018,06,17,13,17,24.40
2018,06,17,13,18,24.30
2018,06,17,13,19,24.30
2018,06,17,13,20,24.20
2018,06,17,13,21,24.30
2018,06,17,13,22,24.40
2018,06,17,13,23,24.40
2018,06,17,13,24,24.30
2018,06,17,13,25,24.30
2018,06,17,13,26,24.20
2018,06,17,13,27,24.10
2018,06,17,13,28,24.20
2018,06,17,13,29,24.30
2018,06,17,13,30,24.40
2018,06,17,13,31,24.50
2018,06,17,13,32,24.60
2018,06,17,13,33,24.60
2018,06,17,13,34,24.70
2018,06,17,13,35,24.80
2018,06,17,13,36,24.80
2018,06,17,13,37,24.90
2018,06,17,13,38,24.90
2018,06,17,13,39,24.90
2018,06,17,13,40,24.90
2018,06,17,13,41,24.90
2018,06,17,13,42,24.90
2018,06,17,13,43,24.80
2018,06,17,13,44,24.70
2018,06,17,13,45,24.70
2018,06,17,13,46,24.60
2018,06,17,13,47,24.50
2018,06,17,13,48,24.60
2018,06,17,13,49,24.50
2018,06,17,13,50,24.50
2018,06,17,13,51,24.40
2018,06,17,13,52,24.30
2018,06,17,13,53,24.00
2018,06,17,13,54,23.80
2018,06,17,13,55,23.60
2018,06,17,13,56,23.50
2018,06,17,13,57,23.40
2018,06,17,13,58,23.50
2018,06,17,13,59,23.60
2018,06,17,14,00,23.70
2018,06,17,14,01,23.80
2018,06,17,14,02,23.90
2018,06,17,14,03,24.00
2018,06,17,14,04,24.10
2018,06,17,14,05,24.30
2018,06,17,14,06,24.30
2018,06,17,14,07,24.30
2018,06,17,14,08,24.30
2018,06,17,14,09,24.30
2018,06,17,14,10,24.30
2018,06,17,14,11,24.30
2018,06,17,14,12,24.30
2018,06,17,14,13,24.40
2018,06,17,14,14,24.50
2018,06,17,14,15,24.50
2018,06,17,14,16,24.50
2018,06,17,14,17,24.50
2018,06,17,14,18,24.50
2018,06,17,14,19,24.50
2018,06,17,14,20,24.50
2018,06,17,14,21,24.50
2018,06,17,14,22,24.50
2018,06,17,14,23,24.40
2018,06,17,14,24,24.50
2018,06,17,14,25,24.50
2018,06,17,14,26,24.60
2018,06,17,14,27,24.60
2018,06,17,14,28,24.60
2018,06,17,14,29,24.60
2018,06,17,14,30,24.70
2018,06,17,14,31,24.70
2018,06,17,14,32,24.80
2018,06,17,14,33,24.80
2018,06,17,14,34,24.90
2018,06,17,14,35,24.90
2018,06,17,14,36,24.90
2018,06,17,14,37,24.90
2018,06,17,14,38,25.00
2018,06,17,14,39,25.00
2018,06,17,14,40,25.00
2018,06,17,14,41,25.00
2018,06,17,14,42,25.10
2018,06,17,14,43,25.20
2018,06,17,14,44,25.30
2018,06,17,14,45,25.40
2018,06,17,14,46,25.50
2018,06,17,14,47,25.60
2018,06,17,14,48,25.70
2018,06,17,14,49,25.90
2018,06,17,14,50,25.90
2018,06,17,14,51,26.00
2018,06,17,14,52,26.10
2018,06,17,14,53,26.10
2018,06,17,14,54,26.20
2018,06,17,14,55,26.20
2018,06,17,14,56,26.30
2018,06,17,14,57,26.40
2018,06,17,14,58,26.60
2018,06,17,14,59,26.70
2018,06,17,15,00,26.80
2018,06,17,15,01,27.00
2018,06,17,15,02,27.10
2018,06,17,15,03,27.10
2018,06,17,15,04,27.10
2018,06,17,15,05,27.10
2018,06,17,15,06,27.00
2018,06,17,15,07,26.90
2018,06,17,15,08,26.80
2018,06,17,15,09,26.80
2018,06,17,15,10,26.80
2018,06,17,15,11,26.80
2018,06,17,15,12,26.80
2018,06,17,15,13,26.80
2018,06,17,15,14,26.90
2018,06,17,15,15,26.90
2018,06,17,15,16,27.10
2018,06,17,15,17,27.10
2018,06,17,15,18,27.10
2018,06,17,15,19,27.20
2018,06,17,15,20,27.20
2018,06,17,15,21,27.30
2018,06,17,15,22,27.30
2018,06,17,15,23,27.30
2018,06,17,15,24,27.30
2018,06,17,15,25,27.40
2018,06,17,15,26,27.50
2018,06,17,15,27,27.70
2018,06,17,15,28,27.80
2018,06,17,15,29,28.00
2018,06,17,15,30,28.00
2018,06,17,15,31,28.00
2018,06,17,15,32,28.00
2018,06,17,15,33,28.00
2018,06,17,15,34,28.10
2018,06,17,15,35,28.10
2018,06,17,15,36,28.10
2018,06,17,15,37,28.10
2018,06,17,15,38,28.10
2018,06,17,15,39,28.20
2018,06,17,15,40,28.30
2018,06,17,15,41,28.40
2018,06,17,15,42,28.50
2018,06,17,15,43,28.60
2018,06,17,15,44,28.70
2018,06,17,15,45,28.70
2018,06,17,15,46,28.80
2018,06,17,15,47,28.70
2018,06,17,15,48,28.60
2018,06,17,15,49,28.50
2018,06,17,15,50,28.40
2018,06,17,15,51,28.30
2018,06,17,15,52,28.30
2018,06,17,15,53,28.30
2018,06,17,15,54,28.20
2018,06,17,15,55,28.20
2018,06,17,15,56,28.10
2018,06,17,15,57,28.00
2018,06,17,15,58,28.00
2018,06,17,15,59,27.90
2018,06,17,16,00,27.90
2018,06,17,16,01,27.90
2018,06,17,16,02,28.00
2018,06,17,16,03,28.00
2018,06,17,16,04,28.00
2018,06,17,16,05,28.00
2018,06,17,16,06,28.10
2018,06,17,16,07,28.10
2018,06,17,16,08,28.10
2018,06,17,16,09,28.10
2018,06,17,16,10,28.20
2018,06,17,16,11,28.30
2018,06,17,16,12,28.40
2018,06,17,16,13,28.60
2018,06,17,16,14,28.70
2018,06,17,16,15,28.80
2018,06,17,16,16,28.80
2018,06,17,16,17,28.80
2018,06,17,16,18,28.70
2018,06,17,16,19,28.70
2018,06,17,16,20,28.60
2018,06,17,16,21,28.60
2018,06,17,16,22,28.40
2018,06,17,16,23,28.30
2018,06,17,16,24,28.20
2018,06,17,16,25,28.20
2018,06,17,16,26,28.10
2018,06,17,16,27,28.10
2018,06,17,16,28,28.00
2018,06,17,16,29,28.00
2018,06,17,16,30,27.90
2018,06,17,16,31,27.80
2018,06,17,16,32,27.70
2018,06,17,16,33,27.70
2018,06,17,16,34,27.70
2018,06,17,16,35,27.70
2018,06,17,16,36,27.70
2018,06,17,16,37,27.80
2018,06,17,16,38,27.90
2018,06,17,16,39,27.90
2018,06,17,16,40,28.00
2018,06,17,16,41,28.10
2018,06,17,16,42,28.10
2018,06,17,16,43,28.10
2018,06,17,16,44,28.10
2018,06,17,16,45,28.00
2018,06,17,16,46,27.90
2018,06,17,16,47,27.80
2018,06,17,16,48,27.70
2018,06,17,16,49,27.70
2018,06,17,16,50,27.70
2018,06,17,16,51,27.90
2018,06,17,16,52,28.00
2018,06,17,16,53,28.20
2018,06,17,16,54,28.20
2018,06,17,16,55,27.90
2018,06,17,16,56,27.70
2018,06,17,16,57,27.40
2018,06,17,16,58,27.30
2018,06,17,16,59,27.20
2018,06,17,17,00,27.20
2018,06,17,17,01,27.20
2018,06,17,17,02,27.30
2018,06,17,17,03,27.30
2018,06,17,17,04,27.30
2018,06,17,17,05,27.30
2018,06,17,17,06,27.30
2018,06,17,17,07,27.30
2018,06,17,17,08,27.30
2018,06,17,17,09,27.30
2018,06,17,17,10,27.40
2018,06,17,17,11,27.50
2018,06,17,17,12,27.60
2018,06,17,17,13,27.60
2018,06,17,17,14,27.60
2018,06,17,17,15,27.50
2018,06,17,17,16,27.40
2018,06,17,17,17,27.40
2018,06,17,17,18,27.50
2018,06,17,17,19,27.60